Baraboo, WI

2:48 AM CDT on August 21, 2017 (GMT -0500)
Baraboo Wisconsin Dells

Weather History for KDLL - March, 2013

Change the Weather History Date:

Saturday, March 30, 2013

  Actual Average Record
Temperature  
Mean Temperature 42 °F -  
Max Temperature 50 °F 48 °F 79 °F (1967)
Min Temperature 33 °F 26 °F 0 °F (1964)
Degree Days  
Heating Degree Days 24    
Moisture  
Dew Point 31 °F    
Average Humidity 69    
Maximum Humidity 100    
Minimum Humidity 50    
Precipitation  
Precipitation 0.00 in - - ()
Sea Level Pressure  
Sea Level Pressure 29.97 in    
Wind  
Wind Speed 10 mph (SSW)    
Max Wind Speed 21 mph    
Max Gust Speed 26 mph    
Visibility 9 miles    
Events Rain    
Averages and records for this station are not official NWS values.
T = Trace of Precipitation, MM = Missing Value Source: NWS Daily Summary

Daily Weather History Graph

Daily Weather History Graph

Search for Another Location

Airport or City:

Trip Planner

Search our weather history database for the weather conditions in past years. The results will help you decide how hot, cold, wet, or windy it might be!

Date:

Astronomy

Mar. 30, 2013 Rise Set
Actual Time 6:43 AM CDT 7:23 PM CDT
Civil Twilight 6:15 AM CDT 7:52 PM CDT
Nautical Twilight 5:40 AM CDT 8:26 PM CDT
Astronomical Twilight 5:05 AM CDT 9:02 PM CDT
Moon 11:37 PM CDT (3/30) 8:32 AM CDT (3/30)
Length of Visible Light 13h 37m
Length of Day
12h 39m
Waning Gibbous, 86% of the Moon is Illuminated
Mar 30
Waning Gibbous
Apr 2
Last Quarter
Apr 10
New
Apr 18
First Quarter
Apr 25
Full

Hourly Weather History & Observations

Time (CDT) Temp. Windchill Dew Point Humidity Pressure Visibility Wind Dir Wind Speed Gust Speed Precip Events Conditions
12:15 AM 35.6 °F 31.7 °F 24.8 °F 65% 30.19 in 10.0 mi South 4.6 mph - N/A   Overcast
12:35 AM 35.6 °F 31.7 °F 26.6 °F 70% 30.19 in 10.0 mi SSW 4.6 mph - N/A   Overcast
12:55 AM 37.4 °F 33.8 °F 23.0 °F 56% 30.19 in 10.0 mi South 4.6 mph - N/A   Overcast
1:15 AM 37.4 °F 32.1 °F 23.0 °F 56% 30.18 in 10.0 mi South 6.9 mph - N/A   Overcast
1:35 AM 35.6 °F 30.7 °F 26.6 °F 70% 30.17 in 10.0 mi South 5.8 mph - N/A   Overcast
1:55 AM 35.6 °F 32.8 °F 24.8 °F 65% 30.17 in 10.0 mi South 3.5 mph - N/A   Overcast
2:15 AM 35.6 °F 29.9 °F 26.6 °F 70% 30.16 in 10.0 mi South 6.9 mph - N/A   Overcast
2:35 AM 35.6 °F 28.6 °F 24.8 °F 65% 30.15 in 10.0 mi South 9.2 mph - N/A   Overcast
2:55 AM 35.6 °F 30.7 °F 24.8 °F 65% 30.14 in 10.0 mi SSE 5.8 mph - N/A   Mostly Cloudy
3:15 AM 33.8 °F 27.7 °F 24.8 °F 70% 30.13 in 10.0 mi South 6.9 mph - N/A   Mostly Cloudy
3:35 AM 35.6 °F 29.2 °F 24.8 °F 65% 30.12 in 10.0 mi South 8.1 mph - N/A   Mostly Cloudy
3:55 AM 37.4 °F 29.8 °F 24.8 °F 60% 30.12 in 10.0 mi South 11.5 mph - N/A   Overcast
4:15 AM 37.4 °F 29.3 °F 24.8 °F 60% 30.12 in 10.0 mi South 12.7 mph - N/A   Overcast
4:35 AM 35.6 °F 27.1 °F 26.6 °F 70% 30.12 in 10.0 mi South 12.7 mph - N/A   Overcast
4:55 AM 35.6 °F 27.1 °F 26.6 °F 70% 30.12 in 10.0 mi South 12.7 mph - N/A   Overcast
5:15 AM 35.6 °F 27.1 °F 26.6 °F 70% 30.11 in 10.0 mi South 12.7 mph - N/A   Overcast
5:35 AM 35.6 °F 26.6 °F 26.6 °F 70% 30.10 in 10.0 mi South 13.8 mph - N/A   Mostly Cloudy
5:55 AM 35.6 °F 25.5 °F 24.8 °F 65% 30.08 in 10.0 mi South 17.3 mph - N/A   Scattered Clouds
6:15 AM 35.6 °F 29.2 °F 26.6 °F 70% 30.07 in 10.0 mi South 8.1 mph - N/A   Mostly Cloudy
6:35 AM 35.6 °F 28.0 °F 24.8 °F 65% 30.07 in 10.0 mi SSW 10.4 mph - N/A   Scattered Clouds
6:55 AM 35.6 °F 28.6 °F 24.8 °F 65% 30.07 in 10.0 mi South 9.2 mph - N/A   Clear
7:15 AM 35.6 °F 28.0 °F 24.8 °F 65% 30.07 in 10.0 mi South 10.4 mph - N/A   Mostly Cloudy
7:35 AM 35.6 °F 27.5 °F 26.6 °F 70% 30.06 in 10.0 mi South 11.5 mph - N/A   Overcast
7:55 AM 37.4 °F 29.8 °F 24.8 °F 60% 30.06 in 10.0 mi SSW 11.5 mph 16.1 mph N/A   Overcast
8:15 AM 37.4 °F 29.3 °F 24.8 °F 60% 30.04 in 10.0 mi South 12.7 mph - N/A   Overcast
8:35 AM 37.4 °F 29.8 °F 26.6 °F 65% 30.04 in 10.0 mi South 11.5 mph - N/A   Overcast
8:55 AM 37.4 °F 27.8 °F 26.6 °F 65% 30.03 in 10.0 mi South 17.3 mph - N/A   Overcast
9:15 AM 37.4 °F 28.5 °F 26.6 °F 65% 30.02 in 10.0 mi South 15.0 mph - N/A   Overcast
9:35 AM 39.2 °F 29.8 °F 28.4 °F 65% 30.00 in 10.0 mi South 18.4 mph - N/A   Overcast
9:55 AM 39.2 °F 31.2 °F 28.4 °F 65% 30.00 in 10.0 mi South 13.8 mph - N/A   Overcast
10:15 AM 41.0 °F 33.1 °F 30.2 °F 65% 30.00 in 10.0 mi South 15.0 mph - N/A   Overcast
10:35 AM 41.0 °F 34.3 °F 30.2 °F 65% 29.99 in 10.0 mi South 11.5 mph - N/A   Overcast
10:55 AM 42.8 °F 36.2 °F 32.0 °F 66% 29.98 in 10.0 mi SSW 12.7 mph - N/A   Overcast
11:15 AM 44.6 °F 38.1 °F 32.0 °F 61% 29.98 in 10.0 mi SSW 13.8 mph - N/A   Overcast
11:35 AM 44.6 °F 36.4 °F 32.0 °F 61% 29.97 in 10.0 mi SSW 20.7 mph - N/A   Overcast
11:55 AM 46.4 °F 39.0 °F 32.0 °F 57% 29.97 in 10.0 mi SSW 19.6 mph 25.3 mph N/A   Overcast
12:15 PM 46.4 °F 39.2 °F 32.0 °F 57% 29.96 in 10.0 mi SSW 18.4 mph 24.2 mph N/A   Overcast
12:35 PM 46.4 °F 39.8 °F 32.0 °F 57% 29.95 in 10.0 mi SSW 16.1 mph - N/A   Overcast
12:55 PM 46.4 °F 39.5 °F 32.0 °F 57% 29.93 in 10.0 mi SSW 17.3 mph 25.3 mph N/A   Mostly Cloudy
1:15 PM 50.0 °F - 33.8 °F 54% 29.93 in 10.0 mi SSW 12.7 mph 18.4 mph N/A   Mostly Cloudy
1:35 PM 50.0 °F - 32.0 °F 50% 29.92 in 10.0 mi SSW 19.6 mph 26.5 mph N/A   Mostly Cloudy
1:55 PM 50.0 °F - 32.0 °F 50% 29.92 in 10.0 mi SSW 12.7 mph 23.0 mph N/A   Overcast
2:35 PM 50.0 °F - 33.8 °F 54% 29.89 in 10.0 mi SSW 15.0 mph 24.2 mph N/A   Overcast
2:55 PM 46.4 °F 40.1 °F 33.8 °F 62% 29.89 in 10.0 mi SSW 15.0 mph 21.9 mph N/A   Overcast
3:15 PM 48.2 °F - 33.8 °F 58% 29.88 in 10.0 mi SSW 17.3 mph 20.7 mph N/A   Overcast
3:35 PM 46.4 °F 40.1 °F 33.8 °F 62% 29.87 in 10.0 mi SSW 15.0 mph 19.6 mph N/A   Overcast
3:55 PM 46.4 °F 39.8 °F 35.6 °F 66% 29.87 in 10.0 mi SSW 16.1 mph 23.0 mph N/A   Overcast
4:15 PM 46.4 °F 40.1 °F 35.6 °F 66% 29.86 in 10.0 mi SSW 15.0 mph - N/A   Overcast
4:35 PM 46.4 °F 40.7 °F 35.6 °F 66% 29.86 in 10.0 mi SW 12.7 mph 21.9 mph N/A Rain Light Rain
4:55 PM 46.4 °F 40.7 °F 35.6 °F 66% 29.84 in 10.0 mi SSW 12.7 mph 19.6 mph N/A   Overcast
5:15 PM 46.4 °F 41.9 °F 35.6 °F 66% 29.84 in 10.0 mi SW 9.2 mph - N/A   Overcast
5:35 PM 46.4 °F 42.9 °F 35.6 °F 66% 29.85 in 10.0 mi WSW 6.9 mph - N/A   Overcast
5:55 PM 46.4 °F 42.9 °F 35.6 °F 66% 29.85 in 10.0 mi WSW 6.9 mph - N/A   Overcast
6:15 PM 44.6 °F 40.7 °F 37.4 °F 76% 29.85 in 7.0 mi WSW 6.9 mph - N/A Rain Rain
6:35 PM 42.8 °F 37.5 °F 37.4 °F 81% 29.85 in 5.0 mi SW 9.2 mph - N/A Rain Rain
6:55 PM 42.8 °F 36.6 °F 37.4 °F 81% 29.84 in 10.0 mi SSW 11.5 mph - N/A   Overcast
7:15 PM 42.8 °F 37.0 °F 37.4 °F 81% 29.83 in 10.0 mi SW 10.4 mph - N/A Rain Light Rain
7:35 PM 42.8 °F 37.0 °F 37.4 °F 81% 29.82 in 10.0 mi SW 10.4 mph - N/A   Overcast
7:55 PM 42.8 °F 37.0 °F 37.4 °F 81% 29.82 in 7.0 mi SW 10.4 mph - N/A   Overcast
8:15 PM 42.8 °F 37.0 °F 37.4 °F 81% 29.82 in 7.0 mi SW 10.4 mph 17.3 mph N/A   Overcast
8:35 PM 42.8 °F 37.0 °F 37.4 °F 81% 29.82 in 7.0 mi SW 10.4 mph - N/A   Overcast
8:55 PM 42.8 °F 37.0 °F 39.2 °F 87% 29.82 in 7.0 mi SW 10.4 mph - N/A   Overcast
9:15 PM 42.8 °F 38.0 °F 39.2 °F 87% 29.82 in 5.0 mi WSW 8.1 mph - N/A   Overcast
9:35 PM 41.0 °F 35.2 °F 39.2 °F 93% 29.82 in 4.0 mi SW 9.2 mph - N/A   Overcast
9:55 PM 41.0 °F 37.1 °F 39.2 °F 93% 29.82 in 2.5 mi WSW 5.8 mph - N/A   Overcast
10:15 PM 41.0 °F 35.8 °F 39.2 °F 93% 29.82 in 1.5 mi West 8.1 mph - N/A   Overcast
10:35 PM 41.0 °F 37.1 °F 39.2 °F 93% 29.82 in 1.0 mi West 5.8 mph - N/A   Overcast
10:55 PM 41.0 °F 35.2 °F 39.2 °F 93% 29.82 in 1.5 mi WNW 9.2 mph - N/A   Overcast
11:15 PM 41.0 °F 36.4 °F 37.4 °F 87% 29.82 in 1.5 mi WNW 6.9 mph - N/A   Overcast
11:35 PM 39.2 °F 33.6 °F 37.4 °F 93% 29.82 in 1.8 mi WNW 8.1 mph - N/A   Overcast
11:55 PM 37.4 °F 32.8 °F 37.4 °F 100% 29.82 in 1.8 mi West 5.8 mph - N/A   Overcast